Location: Albany
(35.0170°S, 117.8920°E)
Time: 08:41:45
(UTC+08:00)

S-56A Canister/Altair - Pass Details

Date: 24 January 2021
Orbit: 632 x 2501 km, 38.9° (Epoch: 25 February)

Event Time Altitude Azimuth Distance (km) Brightness Sun altitude
Rises 22:11:15 0° 257° (WSW) 5,657 12.6 -27.8°
Reaches altitude 10° 22:17:51 10° 278° (W) 4,230 11.6 -28.6°
Maximum altitude 22:22:26 13° 303° (WNW) 3,608 10.9 -29.1°
Enters shadow 22:25:33 11° 323° (NW) 3,515 10.7 -29.4°
Drops below altitude 10° 22:26:25 10° 329° (NNW) 3,547 - -29.5°
Sets 22:31:00 0° 354° (N) 4,110 - -30.0°
